• In Belarus
  • List of Countries
  • For 7 days
  • Water Temperature
  • Satellite Maps
  • Weather Map
  • Weather Widgets
  • user-avatar
    Login

    Hourly Weather Chharra

    Today, 15 November, Thursday

    Time Temperature Precipitation Wind Pressure Humidity
    00:00 +25°C° 0 mm 1 mps 743 mmHg 46%
    01:00 +25°C° 0 mm 1 mps 743 mmHg 46%
    02:00 +25°C° 0 mm 1 mps 743 mmHg 46%
    03:00 +25°C° 0 mm 1 mps 743 mmHg 46%
    04:00 +24°C° 0 mm 1 mps 744 mmHg 47%
    05:00 +24°C° 0 mm 1 mps 744 mmHg 47%
    06:00 +25°C° 0 mm 1 mps 744 mmHg 46%
    07:00 +25°C° 0 mm 1 mps 745 mmHg 45%
    08:00 +26°C° 0 mm 1 mps 745 mmHg 45%
    09:00 +27°C° 0 mm 1 mps 745 mmHg 41%
    10:00 +29°C° 0 mm 1 mps 745 mmHg 38%
    11:00 +30°C° 0 mm 1 mps 745 mmHg 36%
    12:00 +30°C° 0 mm 2 mps 745 mmHg 34%
    13:00 +31°C° 0 mm 2 mps 744 mmHg 32%
    14:00 +31°C° 0 mm 2 mps 744 mmHg 31%
    15:00 +30°C° 0 mm 2 mps 744 mmHg 33%
    16:00 +29°C° 0 mm 2 mps 744 mmHg 35%
    17:00 +28°C° 0 mm 2 mps 743 mmHg 37%
    18:00 +27°C° 0 mm 2 mps 744 mmHg 38%
    19:00 +26°C° 0 mm 2 mps 744 mmHg 39%
    20:00 +26°C° 0 mm 3 mps 744 mmHg 40%
    21:00 +25°C° 0 mm 3 mps 744 mmHg 42%
    22:00 +24°C° 0 mm 3 mps 744 mmHg 44%
    23:00 +24°C° 0 mm 3 mps 744 mmHg 46%

    Tomorrow, 16 November, Friday

    Time Temperature Precipitation Wind Pressure Humidity
    00:00 +22°C° 0 mm 3 mps 744 mmHg 47%
    01:00 +22°C° 0 mm 3 mps 744 mmHg 48%
    02:00 +21°C° 0 mm 3 mps 744 mmHg 50%
    03:00 +21°C° 0 mm 3 mps 744 mmHg 48%
    04:00 +20°C° 0 mm 3 mps 744 mmHg 47%
    05:00 +20°C° 0 mm 3 mps 744 mmHg 46%
    06:00 +20°C° 0 mm 3 mps 744 mmHg 43%
    07:00 +21°C° 0 mm 4 mps 745 mmHg 40%
    08:00 +22°C° 0 mm 4 mps 745 mmHg 37%
    09:00 +25°C° 0 mm 4 mps 745 mmHg 32%
    10:00 +26°C° 0 mm 5 mps 745 mmHg 28%
    11:00 +28°C° 0 mm 5 mps 745 mmHg 23%
    12:00 +29°C° 0 mm 5 mps 744 mmHg 23%
    13:00 +29°C° 0 mm 5 mps 744 mmHg 22%
    14:00 +30°C° 0 mm 5 mps 743 mmHg 21%
    15:00 +28°C° 0 mm 4 mps 743 mmHg 23%
    16:00 +27°C° 0 mm 3 mps 742 mmHg 26%
    17:00 +26°C° 0 mm 2 mps 742 mmHg 29%
    18:00 +25°C° 0 mm 2 mps 743 mmHg 29%
    19:00 +24°C° 0 mm 2 mps 743 mmHg 30%
    20:00 +24°C° 0 mm 2 mps 743 mmHg 31%
    21:00 +23°C° 0 mm 2 mps 743 mmHg 32%
    22:00 +23°C° 0 mm 2 mps 743 mmHg 32%
    23:00 +21°C° 0 mm 2 mps 743 mmHg 33%

    Day after tomorrow, 17 November, Saturday

    Time Temperature Precipitation Wind Pressure Humidity
    00:00 +21°C° 0 mm 2 mps 743 mmHg 34%
    01:00 +21°C° 0 mm 2 mps 743 mmHg 35%
    02:00 +20°C° 0 mm 2 mps 743 mmHg 35%
    03:00 +20°C° 0 mm 2 mps 743 mmHg 36%
    04:00 +20°C° 0 mm 2 mps 743 mmHg 36%
    05:00 +20°C° 0 mm 1 mps 742 mmHg 37%
    06:00 +21°C° 0 mm 1 mps 743 mmHg 36%
    07:00 +22°C° 0 mm 1 mps 744 mmHg 35%
    08:00 +22°C° 0 mm 1 mps 744 mmHg 35%
    09:00 +24°C° 0 mm 2 mps 744 mmHg 31%
    10:00 +26°C° 0 mm 2 mps 744 mmHg 27%
    11:00 +28°C° 0 mm 3 mps 744 mmHg 23%
    12:00 +29°C° 0 mm 3 mps 743 mmHg 22%
    13:00 +30°C° 0 mm 3 mps 743 mmHg 21%
    14:00 +30°C° 0 mm 3 mps 742 mmHg 20%
    15:00 +29°C° 0 mm 3 mps 742 mmHg 23%
    16:00 +27°C° 0 mm 2 mps 741 mmHg 25%
    17:00 +26°C° 0 mm 1 mps 741 mmHg 27%
    18:00 +25°C° 0 mm 1 mps 742 mmHg 28%
    19:00 +25°C° 0 mm 1 mps 742 mmHg 29%
    20:00 +24°C° 0 mm 1 mps 742 mmHg 30%
    21:00 +23°C° 0 mm 1 mps 743 mmHg 31%
    22:00 +23°C° 0 mm 1 mps 743 mmHg 32%
    23:00 +22°C° 0 mm 1 mps 743 mmHg 32%

    18 November, Sunday

    Time Temperature Precipitation Wind Pressure Humidity
    00:00 +22°C° 0 mm 1 mps 743 mmHg 33%
    01:00 +22°C° 0 mm 1 mps 743 mmHg 34%
    02:00 +21°C° 0 mm 1 mps 742 mmHg 34%
    03:00 +21°C° 0 mm 1 mps 743 mmHg 35%
    04:00 +21°C° 0 mm 1 mps 743 mmHg 36%
    05:00 +21°C° 0 mm 1 mps 743 mmHg 36%
    06:00 +20°C° 0 mm 2 mps 743 mmHg 36%
    07:00 +21°C° 0 mm 2 mps 744 mmHg 36%
    08:00 +23°C° 0 mm 2 mps 745 mmHg 36%
    09:00 +24°C° 0 mm 2 mps 745 mmHg 33%
    10:00 +26°C° 0 mm 2 mps 745 mmHg 30%
    11:00 +28°C° 0 mm 2 mps 745 mmHg 26%
    12:00 +29°C° 0 mm 2 mps 744 mmHg 25%
    13:00 +30°C° 0 mm 2 mps 743 mmHg 24%
    14:00 +31°C° 0 mm 1 mps 743 mmHg 22%
    15:00 +29°C° 0 mm 1 mps 742 mmHg 25%
    16:00 +28°C° 0 mm 1 mps 742 mmHg 27%
    17:00 +27°C° 0 mm 1 mps 742 mmHg 30%
    18:00 +26°C° 0 mm 2 mps 743 mmHg 31%
    19:00 +25°C° 0 mm 2 mps 743 mmHg 33%
    20:00 +25°C° 0 mm 2 mps 744 mmHg 34%
    21:00 +24°C° 0 mm 2 mps 744 mmHg 35%
    22:00 +24°C° 0 mm 2 mps 744 mmHg 37%
    23:00 +23°C° 0 mm 2 mps 744 mmHg 38%

    19 November, Monday

    Time Temperature Precipitation Wind Pressure Humidity
    00:00 +23°C° 0 mm 2 mps 744 mmHg 39%
    01:00 +21°C° 0 mm 2 mps 744 mmHg 40%
    02:00 +21°C° 0 mm 2 mps 743 mmHg 42%
    03:00 +20°C° 0 mm 2 mps 743 mmHg 43%
    04:00 +20°C° 0 mm 2 mps 743 mmHg 43%
    05:00 +20°C° 0 mm 2 mps 743 mmHg 44%
    06:00 +20°C° 0 mm 2 mps 744 mmHg 44%
    07:00 +21°C° 0 mm 2 mps 745 mmHg 43%
    08:00 +23°C° 0 mm 2 mps 746 mmHg 42%
    09:00 +25°C° 0 mm 2 mps 746 mmHg 38%
    10:00 +27°C° 0 mm 2 mps 746 mmHg 33%
    11:00 +29°C° 0 mm 2 mps 745 mmHg 29%
    12:00 +30°C° 0 mm 1 mps 745 mmHg 27%
    13:00 +30°C° 0 mm 1 mps 744 mmHg 26%
    14:00 +29°C° 0 mm 0 mps 743 mmHg 24%
    15:00 +28°C° 0 mm 0 mps 743 mmHg 27%
    16:00 +29°C° 0 mm 1 mps 743 mmHg 29%
    17:00 +28°C° 0 mm 1 mps 743 mmHg 31%
    18:00 +27°C° 0 mm 1 mps 744 mmHg 33%
    19:00 +26°C° 0 mm 1 mps 744 mmHg 34%
    20:00 +26°C° 0 mm 1 mps 745 mmHg 35%
    21:00 +25°C° 0 mm 1 mps 745 mmHg 37%
    22:00 +24°C° 0 mm 2 mps 745 mmHg 38%
    23:00 +24°C° 0 mm 2 mps 745 mmHg 40%

    20 November, Tuesday

    Time Temperature Precipitation Wind Pressure Humidity
    00:00 +23°C° 0 mm 2 mps 745 mmHg 40%
    01:00 +23°C° 0 mm 2 mps 744 mmHg 41%
    02:00 +21°C° 0 mm 2 mps 744 mmHg 41%
    03:00 +22°C° 0 mm 1 mps 744 mmHg 41%
    04:00 +21°C° 0 mm 1 mps 744 mmHg 41%
    05:00 +21°C° 0 mm 1 mps 745 mmHg 41%
    06:00 +22°C° 0 mm 1 mps 745 mmHg 40%
    07:00 +23°C° 0 mm 1 mps 746 mmHg 38%
    08:00 +23°C° 0 mm 1 mps 747 mmHg 36%
    09:00 +25°C° 0 mm 1 mps 747 mmHg 31%
    10:00 +27°C° 0 mm 2 mps 747 mmHg 27%
    11:00 +29°C° 0 mm 2 mps 747 mmHg 22%
    12:00 +30°C° 0 mm 3 mps 746 mmHg 21%
    13:00 +31°C° 0 mm 3 mps 745 mmHg 19%
    14:00 +31°C° 0 mm 3 mps 744 mmHg 18%
    15:00 +30°C° 0 mm 3 mps 744 mmHg 20%
    16:00 +28°C° 0 mm 2 mps 744 mmHg 23%
    17:00 +27°C° 0 mm 2 mps 744 mmHg 25%
    18:00 +26°C° 0 mm 2 mps 744 mmHg 26%
    19:00 +25°C° 0 mm 2 mps 745 mmHg 27%
    20:00 +25°C° 0 mm 2 mps 745 mmHg 27%
    21:00 +24°C° 0 mm 2 mps 745 mmHg 28%
    22:00 +24°C° 0 mm 2 mps 746 mmHg 28%
    23:00 +23°C° 0 mm 2 mps 746 mmHg 29%
    Show more